Location: Mason Neck State Park
(38.6428°N, 77.1981°W)
Time: 21:56:28
(UTC-05:00)

Daily predictions for brighter satellites

Satellite Brightness Start Highest point End
(mag) Time Altitude Azimuth Time Altitude Azimuth Time Altitude Azimuth
NOSS 3-2 (C) 4.0 18:16:27 10° SW 18:22:17 63° NW 18:28:46 10° NNE
SL-8 R/B 4.0 18:22:08 10° WSW 18:26:54 69° NNW 18:31:40 10° NE
Cosmos 2219 Rocket 4.1 18:21:56 10° NW 18:27:01 35° WSW 18:32:03 10° SSW
ALOS 2.4 18:24:01 10° SSE 18:28:41 86° WSW 18:33:23 10° NNW
MTI 3.7 18:26:09 10° NNE 18:29:21 85° E 18:32:32 10° S
Cosmos 44 3.5 18:28:52 10° NNW 18:33:52 59° ENE 18:39:04 10° SE
MONITOR-E 4.4 18:32:08 10° S 18:35:08 73° W 18:38:09 10° NNW
FENGYUN 3A 3.9 18:32:24 10° S 18:37:47 77° WSW 18:43:13 10° NNW
Cosmos 2227 Rocket 3.4 18:36:21 10° SW 18:41:45 46° WNW 18:47:11 10° N
CENTAUR R/B 2.4 18:37:59 10° SSW 18:43:51 79° ESE 18:50:36 10° NE
Cosmos 2237 Rocket 3.2 18:38:52 10° NNW 18:44:19 51° WSW 18:49:43 10° S
Cosmos 1378 Rocket 3.7 18:40:54 10° N 18:45:12 49° E 18:49:30 10° SSE
SL-16 R/B 2.2 18:43:28 10° NNW 18:49:08 69° ENE 18:54:45 10° SSE
Cosmos 1633 2.4 18:48:17 10° S 18:51:50 87° E 18:55:26 10° N
Cosmos 1782 Rocket 4.0 18:48:26 10° SSE 18:52:33 39° E 18:56:41 10° NNE
SJ-6B 3.5 18:50:12 10° SE 18:53:33 31° ENE 18:56:56 10° N
Lacrosse 5 3.9 18:50:56 10° WNW 18:55:17 29° WSW 18:59:37 10° S
Cosmos 2297 Rocket 3.5 18:50:14 10° SW 18:55:32 41° WNW 19:00:53 10° N
H-2A R/B 2.7 18:52:16 10° SSE 18:56:11 85° ENE 19:00:06 10° N
Sich 1 Rocket 3.6 18:53:49 10° S 18:58:15 62° E 19:02:40 10° NNE
ERS-2 2.0 18:58:26 10° SSE 19:02:05 68° ENE 19:05:46 10° N
Cosmos 1464 Rocket 3.9 18:56:13 10° N 19:02:23 80° E 19:08:31 10° S
Cosmos 1603 4.4 19:02:34 10° N 19:07:37 32° ENE 19:10:05 23° ESE
Meteor 1-20 Rocket 4.4 19:01:57 10° SSW 19:07:39 81° W 19:13:28 10° N
BREEZE-M R/B 4.0 19:06:07 10° NW 19:08:43 45° NE 19:12:05 22° E
Okean 1 3.2 19:05:30 10° N 19:09:28 64° E 19:13:24 10° SSE
Iridium 4 Rocket 3.1 19:05:12 10° N 19:10:02 83° E 19:14:26 10° S
Cosmos 1452 Rocket 4.1 19:07:34 10° NNW 19:12:44 59° WSW 19:17:52 10° S
Okean 2 Rocket 3.4 19:08:49 10° SSE 19:12:52 39° E 19:16:59 10° NNE
BREEZE-M DEB (TANK) 2.8 19:12:18 10° NW 19:14:29 29° NNE 19:14:37 29° NE
Cosmos 1812 4.4 19:11:05 10° NNW 19:14:40 37° W 19:18:14 10° SSW
CZ-2D R/B 3.4 19:12:22 12° SSE 19:15:46 49° ENE 19:19:34 10° N
Cosmos 1048 Rocket 4.1 19:10:45 10° SSW 19:16:05 79° WNW 19:21:24 10° NNE
Cosmos 2263 Rocket 3.3 19:20:00 10° SSE 19:23:04 24° SE 19:23:04 24° SE
Cosmos 1602 3.6 19:22:46 10° S 19:26:41 80° E 19:30:35 10° N
OAO 2 Rocket 3.5 19:23:34 10° WSW 19:28:24 55° S 19:29:58 38° ESE
Cosmos 921 Rocket 3.1 19:28:31 10° NNW 19:33:03 78° WSW 19:37:30 10° S
Cosmos 2034 Rocket 4.2 19:32:08 10° N 19:38:30 74° W 19:44:49 10° S
Cosmos 2346 Rocket 4.3 19:33:16 10° S 19:39:26 70° E 19:45:34 10° NNE
Tiangong 2 3.3 19:39:23 10° W 19:41:47 20° SW 19:42:18 19° SSW
Meteor 2-4 Rocket 3.7 19:37:57 10° N 19:43:39 57° ENE 19:45:18 42° SE
Meteor 1-19 Rocket 4.0 19:38:41 10° N 19:44:14 84° E 19:49:48 10° S
Cosmos 1437 Rocket 3.9 19:40:38 10° SSW 19:44:31 46° WNW 19:48:29 10° N
Meteor 1-5 Rocket 4.5 19:39:35 10° SSE 19:45:10 48° E 19:50:52 10° NNE
Cosmos 2227 4.2 19:39:57 10° SSW 19:45:41 81° WNW 19:51:25 10° NNE
Meteor 1-11 Rocket 3.5 19:42:15 10° S 19:47:46 73° E 19:53:26 10° NNE
ARGOS Delta rocket 4.0 19:43:37 10° N 19:48:26 70° WNW 19:52:57 10° SSW
Resurs 1-3 4.1 19:51:46 47° NNE 19:51:46 47° NNE 19:55:03 10° N
Cosmos 1634 Rocket 4.0 19:44:53 10° N 19:50:56 55° E 19:52:05 48° ESE
SeaSat 1 2.3 19:50:15 45° SSE 19:51:50 89° ENE 19:56:48 10° NNW
Gbstr 26 Del rocket 3.1 19:51:56 10° WSW 19:55:12 61° W 19:55:12 61° W
USA 215 3.4 19:52:59 23° NE 19:57:21 72° NW 20:03:50 10° WSW
Cosmos 2142 Rocket 4.5 19:54:08 10° N 20:00:21 57° ENE 20:00:21 57° ENE
Cosmos 1975 Rocket 4.1 19:56:28 10° NNW 20:00:42 45° W 20:04:57 10° SSW
Envisat 3.4 19:56:05 10° S 20:01:05 62° WSW 20:06:09 10° NNW
COSMOS 2455 2.7 19:58:16 10° SSW 20:04:16 79° ESE 20:05:36 56° NE
Resurs 01 Rocket 2.2 20:06:02 49° NNW 20:06:02 49° NNW 20:09:19 10° NNW
CZ-4C R/B 3.3 20:03:53 10° NNW 20:10:42 44° NE 20:10:42 44° NE
BREEZE-M DEB (TANK) 3.8 20:10:34 10° WSW 20:13:51 69° NNW 20:15:24 48° NNE
Cosmos 1943 3.6 20:08:48 10° NNW 20:13:11 50° NNE 20:13:11 50° NNE
Cosmos 494 Rocket 4.4 20:11:29 10° SSW 20:16:38 59° WNW 20:19:03 30° N
Cosmos 1110 Rocket 4.2 20:13:42 10° NNW 20:18:58 66° WSW 20:19:14 65° SW
USA 267 3.8 20:30:04 45° NNE 20:30:04 45° NNE 20:35:38 10° NW
ATLAS CENTAUR R/B 4.0 20:25:29 10° NNW 20:26:07 14° NNW 20:26:07 14° NNW
Cosmos 2263 Rocket 4.2 21:03:06 10° SW 21:04:56 20° WSW 21:04:56 20° WSW
CZ-4C R/B 4.5 21:52:26 10° NW 21:55:55 28° WNW 21:55:55 28° WNW
